Погода в Вологде

Хотите узнать прогноз погоды в Вологде? Тогда Вам сюда: Погода в Вологде

Поиск расширенной информации на нашем сайте:

Полезная информация:

Новости сайта



14.11.2019
Обновлён Долгосрочный прогноз погоды по России и другим странам хСССР на ноябрь-декабрь 2019 года.
Опубликованы прогностические карты: Предварительный прогноз на декабрь 2019 года, Предварительный прогноз на январь 2020 года, Предварительная схема синоптических процессов на декабрь 2019 г..

11.11.2019
Обновлены Долгосрочный прогноз погоды по России и другим странам хСССР на ноябрь-декабрь 2019 года и Предварительный прогноз на зиму 2019/2020 годов

04.11.2019
Опубликован Долгосрочный прогноз погоды по России и другим странам хСССР на ноябрь 2019 года
Сравнение прогнозируемой аномалии приземной температуры воздуха на ноябрь 2019 года по разным моделям
Предварительный прогноз на зиму 2019/2020 года




Погода в Вологде - сегодня

Время (UTC), дата Ветер
(°,м/с) 
Видим.   Явления Облачность Т
(°С)
Тd
(°С)
f(%) Тe
(°С)
Pmin
(гПа)
dP
(гПа)
Po
(мм)
O2
(г/м3)
Тmin Tmax R s Состояние
почвы
00 18.11.19 220 (ЮЗ) 1000 м  слаб. морось  10/10 240 м 
[St]
+4.4 +3.7 95 +4  1025.5  -0.3  757  300           
03 18.11.19 220 (ЮЗ) 1000 м  слаб. морось  10/10 210 м 
[St]
+4.6 +3.9 95 +5  1025  -0.5  757  299  +2.5    0.0    мокрая 
06 18.11.19 230 (ЮЗ) 1000 м  дымка{морось}  10/10 210 м 
[St]
+4.9 +4.2 95 +5  1025.4  0.4  757  299           
09 18.11.19 300 (СЗ) 4000 м  дымка{туман}  10/10 270 м 
[St]
+5.6 +4.7 94 +6  1026.6  1.2  758  298           
12 18.11.19 310 (СЗ) 1000 м  дымка{туман}  10/10 210 м 
[St]
+5 +4.1 94 +6  1027.7  1.1  759  300           
15 18.11.19 340 (С) 4000 м  слаб. морось  10/10 300 м 
[St]
+4.6 +3.6 93 +4  1029.5  1.7  760  301    +6.5  0.0     
18 18.11.19 300 (СЗ) 20000 м  {морось}  10/10 400 м 
[Sc]
+4.3 +3.3 93 +5  1030.1  0.6  760  301           
21 18.11.19 320 (СЗ) 0500 м  туман  10/10 240 м 
[St]
+3.6 +2.7 94 +4  1031.5  1.3  761  302           
00 19.11.19 030 (СВ) 0500 м  туман  10/10 240 м 
[St]
+3.5 +2.9 96 +3  1032.8  1.3  762  303           
03 19.11.19 080 (В) 20000 м  в посл. час морось{туман}  10/10 300 м 
[Sc]
+3.3 +2.6 95 +3  1033.5  0.7  763  303  +3.3    0.3    мокрая 
06 19.11.19 080 (В) 20000 м  {морось, туман}  10/10 360 м 
[Sc]
+2.5 +1.5 93 +1  1034.9  1.4  764  305  +2.5         
09 19.11.19 100 (В) 10 км  слаб. дождь  10/9 300 м средняя 
[Frnb|As op]
+1.6 +0.2 90 1036.2  1.3  765  306           
12 19.11.19 090 (В) 10 км  слаб. дождь{снег}  10/9 420 м средняя 
[Frnb|As op]
+1.3 +0.2 92 1036.9  0.6  765  307           
15 19.11.19 100 (В) 20000 м  {дождь}  10/10 1110 м 
[Sc]
+1.1 -0.3 90 -1  1037.7  0.8  766  307    +3.3  0.0     
18 19.11.19 110 (В) 10 км  слаб. дождь  10/9 420 м средняя 
[Frnb|As op]
+0.8 -0.5 91 -1  1039.3  1.4  767  308           
21 19.11.19 110 (В) 10 км  слаб. снег{дождь}  10/9 360 м средняя 
[Frnb|As op]
-0.1 -1.4 91 -3  1040.9  1.5  768  310           
00 20.11.19 130 (ЮВ) 20000 м  {снег, дождь}  10/10 600 м 
[Sc]
-0.8 -2.5 88 -3  1042.2  1.3  769  311           
03 20.11.19 140 (ЮВ) 20000 м    н/о 
-2 -3.7 88 -5  1043.7  1.4  770  313  -2         
06 20.11.19 140 (ЮВ) 20000 м    10/10 870 м 
[Sc]
-2.8 -4.4 89 -6  1044.8  771  314  -2.8         
09 20.11.19 140 (ЮВ) 20000 м  снежные кристаллы  10/10 420 м 
[Sc]
-2.8 -4.4 89 -4  1045.8  772  315           
12 20.11.19 150 (ЮВ) 20000 м  {снег}  10/10 600 м 
[Sc]
-3.3 -5.3 86 -6  1046.5  0.6  772  315           
15 20.11.19 160 (Ю) 20000 м    10/10 900 м 
[Sc]
-4 -6.5 83 -6  1047.1  0.6  772  317    -2  0.0     
18 20.11.19 160 (Ю) 20000 м    ясно 
-6.1 -8.8 81 -8  1047.7  0.4  773  319           
21 20.11.19 170 (Ю) 20000 м    ясно 
-6.7 -10 77 -8  1047.8  0.1  773  320           
00 21.11.19 180 (Ю) 20000 м    ясно 
-7 -10.8 74 -10  1047.8  773  321           
Время (UTC), дата Ветер
(°,м/с) 
Видим.   Явления Облачность Т
(°С)
Тd
(°С)
f(%) Тe
(°С)
Pmin
(гПа)
dP
(гПа)
Po
(мм)
O2
(г/м3)
Тmin Tmax R s Состояние
почвы

Для получения пояснительной информации подведите курсор к названию столбца.

ПОГОДА в Вологде - архив

Всё, что Вы хотите узнать о погоде в Вологде - удобно и подробно!

Выберите нужную дату (начиная с 1 января 2019* года) и нажмите кнопку "Найти".
Будут отображены архивные сводки погоды по пункту Вологда, начиная с указанной даты.


Отображать данные в формате CSV (для использования в таблицах Excel)


Внимание! Наш архив погоды предназначен исключительно для личного некоммерческого использования в познавательных целях. Если Вам необходимы официальные справки о состоянии погоды (для производственных, юридических, коммерческих и т.п. целей), обращайтесь в органы Росгидромета.

*Примечание: данная дата относится к архиву по метеостанциям СССР (Россия, СНГ, Балтия).
Архив по метеостанциям Зарубежной Европы и Азии (кроме Китая) хранится 10 дней, по другим регионам земного шара (Китай, Африка, Америка, Австралия, Океания) - 1 день.

Вологда - район местоположения метеостанции


Название, широта, долгота, высота метеостанции:
Вологда (город) 59.3°ш. 39.9°д. 130 м над ур. моря [Российская Федерация]

Дополнительная информация

В oтличие oт бoльшинства пoгoдных сайтoв мы публикуем пoдрoбную метеoинфoрмацию в детальнoм прoфессиoнальнoм фoрмате.

Характеристики температуры и влажнoсти вoздуха измеряются на высoте 2 м в тени вдали oт зданий и деревьев.
Скoрoсть ветра измеряется на высoте 10 м (на урoвне рoста челoвека скoрoсть ветра ниже в 1.5-2 раза). Если метеoстанция нахoдится в гoрoде или в лесу, тo скoрoсть ветра занижена на 2-4 м/с пo сравнению с oткрытым местoм. Скoрoсть ветра над акватoриями крупных рек и oзёр, а также на вершинах хoлмoв на 2-5 м/с выше, чем в oбычных услoвиях.
Атмoсфернoе давление в разных тoчках местнoсти мoжет значительнo oтличаться oт давления на метеoстанции, в зависимoсти oт услoвий рельефа (при пoдъёме на 10 м давление пoнижается примернo на 1 мм рт.ст.).